To NAV CANADA Home Page Login to a new session Search on AWWS site Feedback and Comments Disclaimer Vers la page française équivalente Tips FAQ What's new on the site To the Forecasts and Observations / NOTAM section To "File a Flight Plan" website Publications and other links Update of the User's profile FIC Telephone Numbers My Weather Data Folder Route Weather Data Regional Weather Data Local Weather Data To the Forecasts and Observations / NOTAM section
Request Generated 02/08/2016 at 07:46:52 UTC . Weather information available at that time is displayed.

METAR/TAF

CHESTERFIELD INLET/NU    

LWIS CYCS 080700Z AUTO 32004KT M30/M33 A3027=
LWIS CYCS 080600Z AUTO 32004KT M31/M34 A3026=
LWIS CYCS 080500Z AUTO 32004KT M30/M34 A3025=

CYCS - No TAF is issued for this station

Your time UTC time
Weather data provided by Environment Canada and NAV CANADA